Flag for U.S.A. Weather past 2 weeks in Virginia Beach, Virginia, U.S.A.

Now
39 °F

Passing clouds.


Feels Like: 39 °F
Forecast: 40 / 69 °F
Wind: No wind

Location: Virginia Beach - Oceana

Current Time: Apr 2, 2015 at 6:47:55 AM

Latest Report: Apr 2, 2015 at 5:56 AM


Visibility: 10 mi

Pressure: 30.31 "Hg

Humidity: 73%

Dew point: 31 °F

Location of Virginia BeachLocation

Historic Weather in Virginia Beach — Graph

°F

Virginia Beach temperature yesterday

Maximum temperature yesterday: 57 °F (at 12:56 AM)
Minimum temperature yesterday: 40 °F (at 10:56 PM)
Average temperature yesterday: 48 °F

Past Weeks' High & Low Weather Summary

 TemperatureHumidityPressure
High74 °F (Mar 26, 3:56 PM)93% (Mar 20, 1:56 PM)30.40 "Hg (Mar 20, 1:56 PM)
Low31 °F (Mar 29, 6:56 AM)23% (Mar 31, 5:56 PM)29.65 "Hg (Mar 31, 7:56 PM)
Average48 °F60%30.10 "Hg
* Reported Mar 18 5:56 AM — Apr 2 5:56 AM, Virginia Beach, Weather by CustomWeather, © 2015

Note: Actual official high and low records may vary slightly from our data, if they occured in-between our weather recording intervals... More about our weather records

Advertising

Virginia Beach weather history for previous 24 hours

 ConditionsComfort  
Time TempWeatherWind HumidityBarometerVisibility
5:56 AM
Thu, Apr 2
39 °FPassing clouds.No wind73%30.31 "Hg10 mi
4:56 AM40 °FClear.7 mph70%30.30 "Hg10 mi
3:56 AM40 °FClear.3 mph68%30.27 "Hg10 mi
2:56 AM42 °FClear.No wind71%30.29 "Hg10 mi
1:56 AM40 °FClear.No wind73%30.30 "Hg10 mi
12:56 AM41 °FClear.5 mph70%30.30 "Hg10 mi
11:56 PM
Wed, Apr 1
42 °FClear.3 mph71%30.29 "Hg10 mi
10:56 PM40 °FClear.5 mph68%30.29 "Hg10 mi
9:56 PM43 °FClear.3 mph68%30.28 "Hg10 mi
8:56 PM43 °FClear.3 mph65%30.27 "Hg10 mi
7:56 PM44 °FSunny.6 mph58%30.23 "Hg10 mi
6:56 PM49 °FSunny.6 mph48%30.22 "Hg10 mi
5:56 PM53 °FSunny.7 mph39%30.19 "Hg10 mi
4:56 PM55 °FSunny.7 mph33%30.18 "Hg10 mi
3:56 PM54 °FSunny.6 mph33%30.17 "Hg10 mi
2:56 PM54 °FSunny.14 mph34%30.16 "Hg10 mi
1:56 PM53 °FSunny.14 mph38%30.17 "Hg10 mi
12:56 PM53 °FSunny.15 mph39%30.17 "Hg10 mi
11:56 AM50 °FSunny.21 mph46%30.15 "Hg10 mi
10:56 AM49 °FPassing clouds.20 mph50%30.14 "Hg10 mi
9:56 AM49 °FPassing clouds.18 mph52%30.10 "Hg10 mi
8:56 AM47 °FPassing clouds.15 mph54%30.10 "Hg10 mi
7:56 AM44 °FScattered clouds.17 mph65%30.07 "Hg10 mi
6:56 AM43 °FPassing clouds.16 mph65%30.03 "Hg10 mi
Weather by CustomWeather, © 2015

See weather overviewHow to use our weather pages